Weather History for KMKG - February, 2014

Change the Weather History Date:

Saturday, February 8, 2014

  Actual Average Record
Temperature  
Mean Temperature 17 °F 26 °F  
Max Temperature 19 °F 32 °F 57 °F (1990)
Min Temperature 15 °F 20 °F -16 °F (1934)
Degree Days  
Heating Degree Days 48 39  
Month to date heating degree days 394 316  
Since 1 July heating degree days 4237 3988  
Cooling Degree Days 0 0  
Month to date cooling degree days 0 0  
Year to date cooling degree days 0 0  
Moisture  
Dew Point 9 °F    
Average Humidity 71    
Maximum Humidity 80    
Minimum Humidity 61    
Precipitation  
Precipitation 0.05 in 0.06 in 1.04 in (2001)
Month to date precipitation 0.48 0.46  
Year to date precipitation 3.80 2.49  
Snow  
Snow 2.10 in 0.70 in 5.30 in (1952)
Month to date snowfall 9.2 6.3  
Since 1 July snowfall 105.7 69.4  
Snow Depth 23.00 in    
Sea Level Pressure  
Sea Level Pressure 30.22 in    
Wind  
Wind Speed 8 mph (SW)    
Max Wind Speed 17 mph    
Max Gust Speed 22 mph    
Visibility 5 miles    
Events Snow    
T = Trace of Precipitation, MM = Missing Value Source: NWS Daily Summary

Daily Weather History Graph

Daily Weather History Graph

Search for Another Location

Airport or City:

Trip Planner

Search our weather history database for the weather conditions in past years. The results will help you decide how hot, cold, wet, or windy it might be!

Date:

Astronomy

Feb. 08, 2014 Rise Set
Actual Time 7:52 AM EST 6:06 PM EST
Civil Twilight 7:22 AM EST 6:36 PM EST
Nautical Twilight 6:48 AM EST 7:10 PM EST
Astronomical Twilight 6:15 AM EST 7:43 PM EST
Moon 12:57 PM EST (2/8) 3:06 AM EST (2/8)
Length of Visible Light 11h 13m
Length of Day
10h 14m
Waxing Gibbous, 68% of the Moon is Illuminated
Feb 8
Waxing Gibbous
Feb 14
Full
Feb 22
Last Quarter
Mar 1
New
Mar 8
First Quarter

Hourly Weather History & Observations

Time (EST) Temp. Windchill Dew Point Humidity Pressure Visibility Wind Dir Wind Speed Gust Speed Precip Events Conditions
12:55 AM 16.0 °F 2.3 °F 6.1 °F 65% 30.31 in 10.0 mi West 12.7 mph - N/A   Overcast
1:55 AM 16.0 °F 2.3 °F 6.1 °F 65% 30.31 in 10.0 mi West 12.7 mph - N/A   Overcast
2:55 AM 16.0 °F 3.6 °F 6.1 °F 65% 30.30 in 10.0 mi West 10.4 mph - N/A   Overcast
3:55 AM 17.1 °F 5.0 °F 6.1 °F 62% 30.29 in 10.0 mi West 10.4 mph - N/A   Overcast
4:55 AM 17.1 °F 6.6 °F 6.1 °F 62% 30.29 in 10.0 mi West 8.1 mph - N/A   Overcast
5:27 AM 17.1 °F 6.6 °F 6.1 °F 62% 30.25 in 10.0 mi WNW 8.1 mph - N/A   Overcast
5:39 AM 17.1 °F 5.8 °F 6.1 °F 62% 30.25 in 10.0 mi West 9.2 mph - N/A   Overcast
5:55 AM 17.1 °F 6.6 °F 6.1 °F 62% 30.29 in 10.0 mi West 8.1 mph - N/A   Overcast
6:47 AM 17.1 °F 8.7 °F 6.1 °F 62% 30.24 in 10.0 mi WNW 5.8 mph - N/A   Overcast
6:55 AM 17.1 °F 6.6 °F 6.1 °F 62% 30.28 in 10.0 mi West 8.1 mph - N/A   Overcast
7:39 AM 17.1 °F 8.7 °F 7.0 °F 65% 30.24 in 10.0 mi West 5.8 mph - 0.00 in   Overcast
7:55 AM 17.1 °F 10.0 °F 7.0 °F 65% 30.28 in 10.0 mi West 4.6 mph - 0.00 in   Overcast
8:55 AM 17.1 °F 8.7 °F 7.0 °F 65% 30.28 in 10.0 mi West 5.8 mph - N/A   Overcast
9:55 AM 18.0 °F 8.7 °F 9.0 °F 68% 30.28 in 2.5 mi WSW 6.9 mph - 0.00 in Snow Light Snow
10:05 AM 18.0 °F 9.8 °F 10.9 °F 74% 30.25 in 1.8 mi West 5.8 mph - 0.00 in Snow Light Snow
10:14 AM 19.0 °F 11.1 °F 10.0 °F 68% 30.24 in 2.5 mi WSW 5.8 mph - 0.00 in Snow Light Snow
10:41 AM 18.0 °F 6.9 °F 12.0 °F 78% 30.24 in 0.8 mi SW 9.2 mph - 0.00 in Snow Light Snow
10:55 AM 19.0 °F 10.0 °F 10.9 °F 71% 30.28 in 0.8 mi WSW 6.9 mph - 0.01 in Snow Light Snow
11:24 AM 19.0 °F 7.5 °F 9.0 °F 65% 30.24 in 10.0 mi SW 10.4 mph - 0.00 in   Mostly Cloudy
11:48 AM 18.0 °F 6.1 °F 9.0 °F 68% 30.24 in 10.0 mi SW 10.4 mph - 0.00 in   Mostly Cloudy
11:55 AM 18.0 °F 6.9 °F 10.0 °F 71% 30.27 in 10.0 mi SSW 9.2 mph - 0.00 in   Overcast
12:44 PM 19.0 °F 6.8 °F 10.0 °F 68% 30.22 in 2.5 mi SW 11.5 mph - 0.00 in Snow Light Snow
12:52 PM 19.4 °F 9.5 °F 10.4 °F 68% 30.22 in 1.2 mi WSW 8.1 mph - 0.00 in Snow Light Snow
12:55 PM 19.0 °F 8.2 °F 10.9 °F 71% 30.26 in 1.2 mi WSW 9.2 mph - 0.00 in Snow Light Snow
1:42 PM 18.0 °F 8.7 °F 12.0 °F 78% 30.19 in 2.5 mi SSW 6.9 mph - 0.00 in Snow Light Snow
1:55 PM 18.0 °F 9.8 °F 12.0 °F 78% 30.22 in 2.5 mi SSW 5.8 mph - 0.00 in Snow Light Snow
2:21 PM 18.0 °F 8.7 °F 12.0 °F 78% 30.17 in 1.8 mi South 6.9 mph - 0.00 in Snow Light Snow
2:36 PM 18.0 °F 7.7 °F 12.0 °F 78% 30.17 in 1.0 mi SSW 8.1 mph - 0.00 in Snow Light Snow
2:43 PM 18.0 °F 6.1 °F 12.0 °F 78% 30.17 in 1.0 mi SSW 10.4 mph - 0.00 in Snow Light Snow
2:55 PM 17.1 °F 6.6 °F 12.0 °F 81% 30.21 in 1.0 mi South 8.1 mph - 0.00 in Snow Light Snow
3:25 PM 17.1 °F 4.3 °F 10.9 °F 77% 30.17 in 0.5 mi South 11.5 mph - 0.00 in Snow Light Snow
3:42 PM 16.0 °F 3.6 °F 10.0 °F 77% 30.17 in 0.5 mi South 10.4 mph - 0.00 in Snow Light Snow
3:55 PM 16.0 °F 7.4 °F 10.0 °F 77% 30.20 in 0.5 mi South 5.8 mph - 0.00 in Snow Light Snow
4:55 PM 16.0 °F 3.6 °F 10.0 °F 77% 30.19 in 0.5 mi South 10.4 mph - 0.01 in Snow Snow
5:55 PM 16.0 °F 5.3 °F 10.0 °F 77% 30.19 in 0.5 mi SSE 8.1 mph - 0.02 in Snow Light Snow
6:00 PM 16.0 °F 6.3 °F 10.0 °F 77% 30.15 in 1.8 mi SSE 6.9 mph - 0.00 in Snow Light Snow
6:08 PM 16.0 °F 5.3 °F 10.0 °F 77% 30.15 in 2.5 mi South 8.1 mph - 0.00 in Snow Light Snow
6:13 PM 16.0 °F 5.3 °F 10.0 °F 77% 30.15 in 1.0 mi SSE 8.1 mph - 0.00 in Snow Light Snow
6:55 PM 16.0 °F 5.3 °F 10.0 °F 77% 30.20 in 1.8 mi South 8.1 mph - 0.01 in Snow Light Snow
7:02 PM 16.0 °F 6.3 °F 10.9 °F 81% 30.16 in 3.0 mi South 6.9 mph - 0.00 in Snow Light Snow
7:31 PM 15.1 °F 5.2 °F 10.0 °F 80% 30.16 in 3.0 mi South 6.9 mph - 0.00 in Snow Light Snow
7:55 PM 15.1 °F 5.2 °F 10.0 °F 80% 30.20 in 6.0 mi South 6.9 mph - 0.00 in Snow Light Snow
8:55 PM 16.0 °F 5.3 °F 10.0 °F 77% 30.18 in 9.0 mi South 8.1 mph - 0.00 in Snow Light Snow
9:55 PM 16.0 °F 5.3 °F 10.0 °F 77% 30.18 in 9.0 mi South 8.1 mph - 0.00 in Snow Light Snow
10:15 PM 16.0 °F 4.4 °F 10.0 °F 77% 30.13 in 5.0 mi SSE 9.2 mph - 0.00 in Snow Light Snow
10:55 PM 15.1 °F 5.2 °F 10.0 °F 80% 30.17 in 3.0 mi South 6.9 mph - 0.00 in Snow Light Snow
11:27 PM 15.1 °F 5.2 °F 10.0 °F 80% 30.13 in 2.0 mi South 6.9 mph - 0.00 in Snow Light Snow
11:55 PM 15.1 °F 3.3 °F 10.0 °F 80% 30.15 in 2.5 mi SSE 9.2 mph - 0.00 in Snow Light Snow